Private Wetterstation Wechselburg
Wetterdaten: Donnerstag, 19.05.2011
Datum Zeit Temp. +2m Bodentemp. Temp.+5cm Temp. Wind Windchill X Diff Temp. Feuchte +2m Feuchte +5cm Sonnenschein Luftdruck Regen Wind Richtung Richtung Sonnenschein UV Taupunkt Windchill Windben
19.05.2011 00:00 16,3 C 18,8 C 14,0 C 14,9 C 12,0 C 0,0 C 74 % 84 % 0 % 1015,4 hPa 0,0 l/m 0,0 km/h (0 Bft) SW 225 0 min 0,0 UV-I 11,7 C 12,0 C 0,0 km/h (0 Bft)
19.05.2011 00:10 16,1 C 18,7 C 13,9 C 14,6 C 11,7 C 0,0 C 75 % 85 % 0 % 1015,4 hPa 0,0 l/m 0,0 km/h (0 Bft) N 0 0 min 0,0 UV-I 11,7 C 11,7 C 0,0 km/h (0 Bft)
19.05.2011 00:15 16,0 C 18,7 C 13,9 C 14,5 C 11,5 C 0,0 C 75 % 85 % 0 % 1015,6 hPa 0,0 l/m 0,0 km/h (0 Bft) SW 225 0 min 0,0 UV-I 11,6 C 11,5 C 0,0 km/h (0 Bft)
19.05.2011 00:20 15,9 C 18,7 C 13,8 C 14,4 C 11,5 C 0,0 C 75 % 85 % 0 % 1015,6 hPa 0,0 l/m 0,0 km/h (0 Bft) SW 225 0 min 0,0 UV-I 11,5 C 11,5 C 0,0 km/h (0 Bft)
19.05.2011 00:25 15,9 C 18,7 C 13,7 C 14,4 C 11,4 C 0,0 C 76 % 85 % 0 % 1015,6 hPa 0,0 l/m 0,0 km/h (0 Bft) W-SW 247 0 min 0,0 UV-I 11,7 C 11,4 C 0,0 km/h (0 Bft)
19.05.2011 00:30 15,7 C 18,7 C 13,6 C 14,3 C 11,5 C 0,0 C 76 % 85 % 0 % 1015,6 hPa 0,0 l/m 0,0 km/h (0 Bft) O-NO 67 0 min 0,0 UV-I 11,5 C 11,5 C 0,0 km/h (0 Bft)
19.05.2011 00:35 15,5 C 18,7 C 13,5 C 14,2 C 11,5 C 0,0 C 76 % 85 % 0 % 1015,6 hPa 0,0 l/m 0,0 km/h (0 Bft) NO 45 0 min 0,0 UV-I 11,3 C 11,5 C 0,0 km/h (0 Bft)
19.05.2011 00:40 15,3 C 18,7 C 13,3 C 14,0 C 11,5 C 0,0 C 76 % 85 % 0 % 1015,6 hPa 0,0 l/m 0,0 km/h (0 Bft) NO 45 0 min 0,0 UV-I 11,1 C 11,5 C 0,0 km/h (0 Bft)
19.05.2011 00:45 15,2 C 18,6 C 13,2 C 13,9 C 11,4 C 0,0 C 78 % 86 % 0 % 1015,6 hPa 0,0 l/m 0,2 km/h (0 Bft) SW 225 0 min 0,0 UV-I 11,4 C 11,4 C 2,3 km/h (1 Bft)
19.05.2011 00:50 15,3 C 18,6 C 13,2 C 14,0 C 11,3 C 0,0 C 77 % 86 % 0 % 1015,6 hPa 0,0 l/m 0,6 km/h (0 Bft) S 180 0 min 0,0 UV-I 11,3 C 11,3 C 0,0 km/h (0 Bft)
19.05.2011 00:55 14,9 C 18,7 C 12,9 C 13,7 C 11,2 C 0,0 C 76 % 86 % 0 % 1015,6 hPa 0,0 l/m 0,6 km/h (0 Bft) O-NO 67 0 min 0,0 UV-I 10,7 C 11,2 C 2,9 km/h (1 Bft)
19.05.2011 01:00 14,8 C 18,8 C 12,9 C 13,6 C 11,2 C 0,0 C 78 % 86 % 0 % 1015,6 hPa 0,0 l/m 0,0 km/h (0 Bft) O-NO 67 0 min 0,0 UV-I 11,0 C 11,2 C 0,0 km/h (0 Bft)
19.05.2011 01:10 14,6 C 18,7 C 12,7 C 13,5 C 11,3 C 0,0 C 78 % 86 % 0 % 1015,6 hPa 0,0 l/m 0,0 km/h (0 Bft) N 0 0 min 0,0 UV-I 10,8 C 11,3 C 0,0 km/h (0 Bft)
19.05.2011 01:15 14,6 C 18,6 C 12,7 C 13,5 C 11,2 C 0,0 C 78 % 87 % 0 % 1015,2 hPa 0,0 l/m 0,0 km/h (0 Bft) W-NW 292 0 min 0,0 UV-I 10,8 C 11,2 C 0,0 km/h (0 Bft)
19.05.2011 01:20 14,7 C 18,5 C 12,7 C 13,5 C 11,0 C 0,0 C 78 % 87 % 0 % 1015,2 hPa 0,0 l/m 0,0 km/h (0 Bft) SW 225 0 min 0,0 UV-I 10,9 C 11,0 C 0,0 km/h (0 Bft)
19.05.2011 01:25 14,6 C 18,6 C 12,6 C 13,3 C 10,8 C 0,0 C 78 % 87 % 0 % 1015,2 hPa 0,0 l/m 0,0 km/h (0 Bft) SW 225 0 min 0,0 UV-I 10,8 C 10,8 C 0,0 km/h (0 Bft)
19.05.2011 01:30 14,6 C 18,6 C 12,5 C 13,3 C 10,7 C 0,0 C 78 % 87 % 0 % 1015,2 hPa 0,0 l/m 0,0 km/h (0 Bft) SW 225 0 min 0,0 UV-I 10,8 C 10,7 C 0,0 km/h (0 Bft)
19.05.2011 01:35 14,5 C 18,6 C 12,5 C 13,2 C 10,5 C 0,0 C 78 % 87 % 0 % 1015,9 hPa 0,0 l/m 0,0 km/h (0 Bft) S 180 0 min 0,0 UV-I 10,7 C 10,5 C 0,0 km/h (0 Bft)
19.05.2011 01:40 14,4 C 18,5 C 12,4 C 13,1 C 10,4 C 0,0 C 78 % 88 % 0 % 1015,9 hPa 0,0 l/m 0,0 km/h (0 Bft) W-SW 247 0 min 0,0 UV-I 10,6 C 10,4 C 0,0 km/h (0 Bft)
19.05.2011 01:45 14,4 C 18,5 C 12,4 C 13,0 C 10,3 C 0,0 C 78 % 88 % 0 % 1015,9 hPa 0,0 l/m 0,0 km/h (0 Bft) SW 225 0 min 0,0 UV-I 10,6 C 10,3 C 0,0 km/h (0 Bft)
19.05.2011 01:50 14,4 C 18,5 C 12,4 C 13,0 C 10,3 C 0,0 C 78 % 88 % 0 % 1015,9 hPa 0,0 l/m 0,0 km/h (0 Bft) SW 225 0 min 0,0 UV-I 10,6 C 10,3 C 0,0 km/h (0 Bft)
19.05.2011 01:55 14,3 C 18,5 C 12,3 C 13,0 C 10,3 C 0,0 C 78 % 87 % 0 % 1015,2 hPa 0,0 l/m 0,0 km/h (0 Bft) SW 225 0 min 0,0 UV-I 10,5 C 10,3 C 0,0 km/h (0 Bft)
19.05.2011 02:00 14,1 C 18,6 C 12,1 C 12,8 C 10,2 C 0,0 C 78 % 87 % 0 % 1015,2 hPa 0,0 l/m 0,0 km/h (0 Bft) SW 225 0 min 0,0 UV-I 10,3 C 10,2 C 0,0 km/h (0 Bft)
19.05.2011 02:10 14,0 C 18,5 C 12,0 C 12,7 C 10,0 C 0,0 C 79 % 87 % 0 % 1015,2 hPa 0,0 l/m 0,0 km/h (0 Bft) N 0 0 min 0,0 UV-I 10,4 C 10,0 C 0,0 km/h (0 Bft)
19.05.2011 02:15 14,0 C 18,4 C 12,0 C 12,6 C 9,9 C 0,0 C 79 % 87 % 0 % 1015,1 hPa 0,0 l/m 0,0 km/h (0 Bft) S 180 0 min 0,0 UV-I 10,4 C 9,9 C 0,0 km/h (0 Bft)
19.05.2011 02:20 13,9 C 18,4 C 11,9 C 12,6 C 9,9 C 0,0 C 79 % 87 % 0 % 1015,1 hPa 0,0 l/m 0,0 km/h (0 Bft) W-SW 247 0 min 0,0 UV-I 10,3 C 9,9 C 0,0 km/h (0 Bft)
19.05.2011 02:25 13,9 C 18,4 C 11,9 C 12,6 C 9,9 C 0,0 C 79 % 88 % 0 % 1015,1 hPa 0,0 l/m 0,0 km/h (0 Bft) W-SW 247 0 min 0,0 UV-I 10,3 C 9,9 C 0,0 km/h (0 Bft)
19.05.2011 02:30 13,8 C 18,3 C 11,8 C 12,5 C 9,8 C 0,0 C 79 % 87 % 0 % 1015,1 hPa 0,0 l/m 0,0 km/h (0 Bft) W-SW 247 0 min 0,0 UV-I 10,2 C 9,8 C 0,0 km/h (0 Bft)
19.05.2011 02:35 13,7 C 18,3 C 11,7 C 12,4 C 9,7 C 0,0 C 78 % 88 % 0 % 1015,1 hPa 0,0 l/m 0,0 km/h (0 Bft) W-SW 247 0 min 0,0 UV-I 9,9 C 9,7 C 0,0 km/h (0 Bft)
19.05.2011 02:40 13,7 C 18,3 C 11,7 C 12,3 C 9,6 C 0,0 C 78 % 88 % 0 % 1015,1 hPa 0,0 l/m 0,0 km/h (0 Bft) SW 225 0 min 0,0 UV-I 9,9 C 9,6 C 0,0 km/h (0 Bft)
19.05.2011 02:45 13,6 C 18,3 C 11,6 C 12,3 C 9,6 C 0,0 C 79 % 88 % 0 % 1015,1 hPa 0,0 l/m 0,0 km/h (0 Bft) SW 225 0 min 0,0 UV-I 10,0 C 9,6 C 0,0 km/h (0 Bft)
19.05.2011 02:50 13,6 C 18,3 C 11,6 C 12,2 C 9,5 C 0,0 C 78 % 88 % 0 % 1015,1 hPa 0,0 l/m 0,0 km/h (0 Bft) SW 225 0 min 0,0 UV-I 9,8 C 9,5 C 0,0 km/h (0 Bft)
19.05.2011 02:55 13,5 C 18,3 C 11,5 C 12,1 C 9,4 C 0,0 C 79 % 88 % 0 % 1015,2 hPa 0,0 l/m 0,0 km/h (0 Bft) SW 225 0 min 0,0 UV-I 9,9 C 9,4 C 0,0 km/h (0 Bft)
19.05.2011 03:00 13,3 C 18,2 C 11,5 C 12,0 C 9,4 C 0,0 C 79 % 88 % 0 % 1015,2 hPa 0,0 l/m 0,0 km/h (0 Bft) W-SW 247 0 min 0,0 UV-I 9,7 C 9,4 C 0,0 km/h (0 Bft)
19.05.2011 03:10 13,4 C 18,2 C 11,4 C 12,1 C 9,4 C 0,0 C 79 % 88 % 0 % 1015,2 hPa 0,0 l/m 0,0 km/h (0 Bft) N 0 0 min 0,0 UV-I 9,8 C 9,4 C 0,0 km/h (0 Bft)
19.05.2011 03:15 13,3 C 18,2 C 11,4 C 11,9 C 9,2 C 0,0 C 79 % 89 % 0 % 1015,1 hPa 0,0 l/m 0,0 km/h (0 Bft) W-SW 247 0 min 0,0 UV-I 9,7 C 9,2 C 0,0 km/h (0 Bft)
19.05.2011 03:20 13,2 C 18,1 C 11,3 C 11,9 C 9,2 C 0,0 C 79 % 88 % 0 % 1015,1 hPa 0,0 l/m 0,0 km/h (0 Bft) W-SW 247 0 min 0,0 UV-I 9,6 C 9,2 C 0,0 km/h (0 Bft)
19.05.2011 03:25 13,1 C 18,2 C 11,3 C 11,8 C 9,1 C 0,0 C 79 % 88 % 0 % 1015,1 hPa 0,0 l/m 0,0 km/h (0 Bft) W-SW 247 0 min 0,0 UV-I 9,5 C 9,1 C 0,0 km/h (0 Bft)
19.05.2011 03:30 12,9 C 18,2 C 11,0 C 11,6 C 9,0 C 0,0 C 79 % 88 % 0 % 1015,1 hPa 0,0 l/m 0,0 km/h (0 Bft) W-SW 247 0 min 0,0 UV-I 9,3 C 9,0 C 0,0 km/h (0 Bft)
19.05.2011 03:35 12,7 C 18,1 C 10,8 C 11,5 C 9,1 C 0,0 C 80 % 88 % 0 % 1015,1 hPa 0,0 l/m 0,0 km/h (0 Bft) W-SW 247 0 min 0,0 UV-I 9,3 C 9,1 C 0,0 km/h (0 Bft)
19.05.2011 03:40 12,8 C 18,1 C 10,8 C 11,5 C 8,9 C 0,0 C 80 % 88 % 0 % 1015,1 hPa 0,0 l/m 0,0 km/h (0 Bft) W-SW 247 0 min 0,0 UV-I 9,4 C 8,9 C 0,0 km/h (0 Bft)
19.05.2011 03:45 12,8 C 18,1 C 10,9 C 11,5 C 8,9 C 0,0 C 81 % 89 % 0 % 1015,1 hPa 0,0 l/m 0,0 km/h (0 Bft) W-SW 247 0 min 0,0 UV-I 9,6 C 8,9 C 0,0 km/h (0 Bft)
19.05.2011 03:50 12,8 C 18,1 C 10,8 C 11,5 C 8,9 C 0,0 C 80 % 89 % 0 % 1015,1 hPa 0,0 l/m 0,0 km/h (0 Bft) W-SW 247 0 min 0,0 UV-I 9,4 C 8,9 C 0,0 km/h (0 Bft)
19.05.2011 03:55 12,7 C 18,0 C 10,9 C 11,4 C 8,8 C 0,0 C 80 % 89 % 0 % 1014,8 hPa 0,0 l/m 0,0 km/h (0 Bft) W-SW 247 0 min 0,0 UV-I 9,3 C 8,8 C 0,0 km/h (0 Bft)
19.05.2011 04:00 12,7 C 18,1 C 10,7 C 11,4 C 8,7 C 0,0 C 79 % 89 % 0 % 1014,8 hPa 0,0 l/m 0,0 km/h (0 Bft) W 270 0 min 0,0 UV-I 9,2 C 8,7 C 0,0 km/h (0 Bft)
19.05.2011 04:10 12,3 C 18,0 C 10,4 C 11,1 C 8,6 C 0,0 C 81 % 88 % 0 % 1014,8 hPa 0,0 l/m 0,0 km/h (0 Bft) N 0 0 min 0,0 UV-I 9,1 C 8,6 C 0,0 km/h (0 Bft)
19.05.2011 04:15 12,4 C 18,0 C 10,4 C 11,1 C 8,6 C 0,0 C 81 % 88 % 0 % 1015,1 hPa 0,0 l/m 0,0 km/h (0 Bft) W-SW 247 0 min 0,0 UV-I 9,2 C 8,6 C 0,0 km/h (0 Bft)
19.05.2011 04:20 12,4 C 18,0 C 10,4 C 11,1 C 8,6 C 0,0 C 81 % 89 % 0 % 1015,1 hPa 0,0 l/m 0,0 km/h (0 Bft) W-SW 247 0 min 0,0 UV-I 9,2 C 8,6 C 0,0 km/h (0 Bft)
19.05.2011 04:25 12,3 C 18,0 C 10,4 C 11,0 C 8,5 C 0,0 C 80 % 89 % 0 % 1015,1 hPa 0,0 l/m 0,0 km/h (0 Bft) NW 315 0 min 0,0 UV-I 8,9 C 8,5 C 0,0 km/h (0 Bft)
19.05.2011 04:30 12,1 C 18,0 C 10,3 C 10,9 C 8,5 C 0,0 C 80 % 88 % 0 % 1015,1 hPa 0,0 l/m 0,0 km/h (0 Bft) NW 315 0 min 0,0 UV-I 8,8 C 8,5 C 0,0 km/h (0 Bft)
19.05.2011 04:35 11,7 C 18,0 C 10,0 C 10,7 C 8,6 C 0,0 C 80 % 88 % 0 % 1015,1 hPa 0,0 l/m 0,0 km/h (0 Bft) NW 315 0 min 0,0 UV-I 8,4 C 8,6 C 0,0 km/h (0 Bft)
19.05.2011 04:40 11,6 C 18,0 C 10,0 C 10,7 C 8,8 C 0,0 C 82 % 88 % 0 % 1015,1 hPa 0,0 l/m 0,0 km/h (0 Bft) NW 315 0 min 0,0 UV-I 8,6 C 8,8 C 0,0 km/h (0 Bft)
19.05.2011 04:45 11,6 C 18,0 C 10,1 C 10,7 C 8,8 C 0,0 C 83 % 89 % 0 % 1015,1 hPa 0,0 l/m 0,0 km/h (0 Bft) NW 315 0 min 0,0 UV-I 8,8 C 8,8 C 0,0 km/h (0 Bft)
19.05.2011 04:50 11,7 C 17,9 C 10,1 C 10,7 C 8,7 C 0,0 C 83 % 89 % 0 % 1015,1 hPa 0,0 l/m 0,0 km/h (0 Bft) NW 315 0 min 0,0 UV-I 8,9 C 8,7 C 0,0 km/h (0 Bft)
19.05.2011 04:55 11,8 C 17,9 C 10,1 C 10,7 C 8,5 C 0,0 C 82 % 89 % 0 % 1015,2 hPa 0,0 l/m 0,0 km/h (0 Bft) NW 315 0 min 0,0 UV-I 8,8 C 8,5 C 0,0 km/h (0 Bft)
19.05.2011 05:00 11,9 C 17,9 C 10,0 C 10,7 C 8,4 C 0,0 C 82 % 89 % 0 % 1015,2 hPa 0,0 l/m 0,0 km/h (0 Bft) NW 315 0 min 0,0 UV-I 8,9 C 8,4 C 0,0 km/h (0 Bft)
19.05.2011 05:10 11,7 C 17,9 C 10,1 C 10,6 C 8,4 C 0,0 C 82 % 89 % 0 % 1015,2 hPa 0,0 l/m 0,0 km/h (0 Bft) N 0 0 min 0,0 UV-I 8,7 C 8,4 C 0,0 km/h (0 Bft)
19.05.2011 05:15 11,8 C 17,8 C 10,0 C 10,6 C 8,3 C 0,0 C 82 % 89 % 0 % 1014,7 hPa 0,0 l/m 0,0 km/h (0 Bft) W-SW 247 0 min 0,0 UV-I 8,8 C 8,3 C 0,0 km/h (0 Bft)
19.05.2011 05:20 11,9 C 17,7 C 10,0 C 10,7 C 8,2 C 0,0 C 82 % 90 % 0 % 1014,7 hPa 0,0 l/m 0,0 km/h (0 Bft) W-SW 247 0 min 0,0 UV-I 8,9 C 8,2 C 0,0 km/h (0 Bft)
19.05.2011 05:25 11,7 C 17,8 C 10,0 C 10,5 C 8,2 C 0,0 C 81 % 89 % 0 % 1014,7 hPa 0,0 l/m 0,0 km/h (0 Bft) W-SW 247 0 min 0,0 UV-I 8,5 C 8,2 C 0,0 km/h (0 Bft)
19.05.2011 05:30 11,6 C 17,7 C 9,9 C 10,4 C 8,1 C 0,0 C 81 % 89 % 0 % 1014,7 hPa 0,0 l/m 0,0 km/h (0 Bft) W-SW 247 0 min 0,0 UV-I 8,5 C 8,1 C 0,0 km/h (0 Bft)
19.05.2011 05:35 11,7 C 17,7 C 9,9 C 10,5 C 8,1 C 0,0 C 82 % 89 % 0 % 1015,1 hPa 0,0 l/m 0,0 km/h (0 Bft) W-SW 247 0 min 0,0 UV-I 8,7 C 8,1 C 0,0 km/h (0 Bft)
19.05.2011 05:40 11,6 C 17,7 C 10,0 C 10,4 C 8,1 C 0,0 C 82 % 89 % 0 % 1015,1 hPa 0,0 l/m 0,0 km/h (0 Bft) W-SW 247 0 min 0,0 UV-I 8,6 C 8,1 C 0,0 km/h (0 Bft)
19.05.2011 05:45 11,6 C 17,7 C 10,0 C 10,5 C 8,2 C 0,0 C 81 % 89 % 0 % 1015,1 hPa 0,0 l/m 0,0 km/h (0 Bft) W-SW 247 0 min 0,0 UV-I 8,5 C 8,2 C 0,0 km/h (0 Bft)
19.05.2011 05:50 11,5 C 17,7 C 9,9 C 10,4 C 8,2 C 0,0 C 81 % 89 % 0 % 1015,1 hPa 0,0 l/m 0,0 km/h (0 Bft) W-SW 247 0 min 0,0 UV-I 8,4 C 8,2 C 0,0 km/h (0 Bft)
19.05.2011 05:55 11,3 C 17,7 C 9,8 C 10,4 C 8,5 C 0,0 C 82 % 89 % 0 % 1015,0 hPa 0,0 l/m 0,0 km/h (0 Bft) W-SW 247 0 min 0,0 UV-I 8,3 C 8,5 C 0,0 km/h (0 Bft)
19.05.2011 06:00 11,4 C 17,6 C 9,9 C 10,5 C 8,6 C 0,0 C 83 % 90 % 0 % 1015,0 hPa 0,0 l/m 0,0 km/h (0 Bft) W-SW 247 0 min 0,0 UV-I 8,6 C 8,6 C 0,0 km/h (0 Bft)
19.05.2011 06:10 11,7 C 17,5 C 10,1 C 10,7 C 8,6 C 0,0 C 82 % 90 % 0 % 1015,0 hPa 0,0 l/m 0,0 km/h (0 Bft) N 0 0 min 0,0 UV-I 8,7 C 8,6 C 0,0 km/h (0 Bft)
19.05.2011 06:15 11,9 C 17,5 C 10,0 C 10,8 C 8,6 C 0,0 C 81 % 90 % 0 % 1015,4 hPa 0,0 l/m 0,0 km/h (0 Bft) SW 225 0 min 0,0 UV-I 8,7 C 8,6 C 0,0 km/h (0 Bft)
19.05.2011 06:20 12,1 C 17,5 C 10,0 C 10,9 C 8,6 C 0,0 C 81 % 90 % 0 % 1015,4 hPa 0,0 l/m 0,0 km/h (0 Bft) SW 225 0 min 0,0 UV-I 8,9 C 8,6 C 0,0 km/h (0 Bft)
19.05.2011 06:25 12,9 C 17,5 C 10,0 C 11,5 C 8,7 C 0,0 C 80 % 90 % 0 % 1015,4 hPa 0,0 l/m 0,0 km/h (0 Bft) SW 225 0 min 0,0 UV-I 9,5 C 8,7 C 0,0 km/h (0 Bft)
19.05.2011 06:30 12,8 C 17,5 C 10,1 C 11,5 C 8,8 C 0,0 C 79 % 91 % 0 % 1015,4 hPa 0,0 l/m 0,0 km/h (0 Bft) SW 225 0 min 0,0 UV-I 9,2 C 8,8 C 0,0 km/h (0 Bft)
19.05.2011 06:35 12,9 C 17,4 C 10,5 C 11,6 C 9,0 C 0,0 C 80 % 91 % 0 % 1014,8 hPa 0,0 l/m 0,0 km/h (0 Bft) W-SW 247 0 min 0,0 UV-I 9,5 C 9,0 C 0,0 km/h (0 Bft)
19.05.2011 06:40 13,1 C 17,4 C 10,7 C 11,8 C 9,2 C 0,0 C 79 % 91 % 0 % 1014,8 hPa 0,0 l/m 0,0 km/h (0 Bft) W-SW 247 0 min 0,0 UV-I 9,5 C 9,2 C 0,0 km/h (0 Bft)
19.05.2011 06:45 13,5 C 17,4 C 10,8 C 12,2 C 9,5 C 0,0 C 78 % 90 % 0 % 1014,8 hPa 0,0 l/m 0,0 km/h (0 Bft) W-SW 247 0 min 0,0 UV-I 9,7 C 9,5 C 0,0 km/h (0 Bft)
19.05.2011 06:50 13,9 C 17,3 C 11,1 C 12,5 C 9,7 C 0,0 C 78 % 90 % 0 % 1014,8 hPa 0,0 l/m 0,0 km/h (0 Bft) W-SW 247 0 min 0,0 UV-I 10,1 C 9,7 C 0,0 km/h (0 Bft)
19.05.2011 06:55 15,8 C 17,3 C 11,2 C 14,1 C 10,8 C 0,0 C 75 % 90 % 0 % 1014,9 hPa 0,0 l/m 0,0 km/h (0 Bft) N 360 0 min 0,0 UV-I 11,4 C 10,8 C 0,0 km/h (0 Bft)
19.05.2011 07:00 17,4 C 17,3 C 11,4 C 15,9 C 12,9 C 0,0 C 72 % 90 % 0 % 1014,9 hPa 0,0 l/m 0,0 km/h (0 Bft) NW 315 0 min 0,0 UV-I 12,3 C 12,9 C 0,0 km/h (0 Bft)
19.05.2011 07:10 18,8 C 17,3 C 11,4 C 18,1 C 16,6 C 0,0 C 66 % 89 % 0 % 1014,9 hPa 0,0 l/m 0,0 km/h (0 Bft) N 0 0 min 0,0 UV-I 12,3 C 16,6 C 0,0 km/h (0 Bft)
19.05.2011 07:15 17,2 C 17,2 C 11,5 C 18,2 C 18,2 C 1,0 C 67 % 89 % 26 % 1015,2 hPa 0,0 l/m 0,0 km/h (0 Bft) S 180 0 min 0,1 UV-I 11,0 C 18,2 C 0,0 km/h (0 Bft)
19.05.2011 07:20 17,3 C 17,2 C 11,6 C 19,4 C 19,4 C 2,1 C 68 % 89 % 55 % 1015,2 hPa 0,0 l/m 0,0 km/h (0 Bft) S 180 0 min 0,1 UV-I 11,3 C 19,4 C 0,0 km/h (0 Bft)
19.05.2011 07:25 16,7 C 17,1 C 11,7 C 20,4 C 20,4 C 3,7 C 70 % 89 % 97 % 1015,2 hPa 0,0 l/m 0,0 km/h (0 Bft) S-SW 202 5 min 0,1 UV-I 11,2 C 20,4 C 0,0 km/h (0 Bft)
19.05.2011 07:30 16,5 C 17,1 C 11,8 C 20,9 C 20,9 C 4,4 C 71 % 89 % 100 % 1015,2 hPa 0,0 l/m 0,0 km/h (0 Bft) S-SW 202 5 min 0,1 UV-I 11,2 C 20,9 C 0,0 km/h (0 Bft)
19.05.2011 07:35 16,5 C 17,1 C 12,0 C 21,4 C 21,4 C 4,9 C 71 % 90 % 100 % 1015,6 hPa 0,0 l/m 0,0 km/h (0 Bft) W-SW 247 5 min 0,1 UV-I 11,2 C 21,4 C 0,0 km/h (0 Bft)
19.05.2011 07:40 16,4 C 17,1 C 12,1 C 22,1 C 22,1 C 5,7 C 71 % 90 % 100 % 1015,6 hPa 0,0 l/m 0,0 km/h (0 Bft) W-SW 247 5 min 0,1 UV-I 11,1 C 22,1 C 0,0 km/h (0 Bft)
19.05.2011 07:45 16,4 C 17,1 C 12,3 C 22,6 C 22,6 C 6,2 C 71 % 90 % 100 % 1015,6 hPa 0,0 l/m 0,0 km/h (0 Bft) SW 225 5 min 0,2 UV-I 11,1 C 22,6 C 0,0 km/h (0 Bft)
19.05.2011 07:50 16,4 C 17,1 C 12,5 C 22,8 C 22,8 C 6,4 C 71 % 89 % 100 % 1015,6 hPa 0,0 l/m 0,0 km/h (0 Bft) W-SW 247 5 min 0,2 UV-I 11,1 C 22,8 C 0,0 km/h (0 Bft)
19.05.2011 07:55 17,3 C 17,0 C 12,5 C 23,8 C 23,8 C 6,5 C 71 % 89 % 100 % 1015,1 hPa 0,0 l/m 0,0 km/h (0 Bft) W-SW 247 5 min 0,3 UV-I 12,0 C 23,8 C 0,0 km/h (0 Bft)
19.05.2011 08:00 18,1 C 17,1 C 12,5 C 24,4 C 24,4 C 6,3 C 69 % 89 % 100 % 1015,1 hPa 0,0 l/m 0,0 km/h (0 Bft) W-SW 247 5 min 0,3 UV-I 12,3 C 24,4 C 0,0 km/h (0 Bft)
19.05.2011 08:10 18,2 C 17,0 C 13,1 C 24,9 C 24,9 C 6,7 C 68 % 89 % 100 % 1015,1 hPa 0,0 l/m 0,0 km/h (0 Bft) N 0 10 min 0,4 UV-I 12,2 C 24,9 C 0,0 km/h (0 Bft)
19.05.2011 08:15 18,7 C 17,0 C 13,1 C 25,2 C 25,2 C 6,5 C 68 % 89 % 100 % 1015,5 hPa 0,0 l/m 0,0 km/h (0 Bft) S-SW 202 5 min 0,4 UV-I 12,7 C 25,2 C 0,0 km/h (0 Bft)
19.05.2011 08:20 18,2 C 17,0 C 13,1 C 25,4 C 25,4 C 7,2 C 68 % 89 % 100 % 1015,5 hPa 0,0 l/m 0,0 km/h (0 Bft) S-SW 202 5 min 0,4 UV-I 12,2 C 25,4 C 0,0 km/h (0 Bft)
19.05.2011 08:25 19,6 C 17,0 C 13,8 C 25,8 C 25,8 C 6,2 C 67 % 88 % 100 % 1015,5 hPa 0,0 l/m 0,0 km/h (0 Bft) W-SW 247 5 min 0,5 UV-I 13,3 C 25,8 C 0,0 km/h (0 Bft)
19.05.2011 08:30 19,9 C 17,0 C 14,0 C 26,1 C 26,1 C 6,2 C 66 % 88 % 100 % 1015,5 hPa 0,0 l/m 0,0 km/h (0 Bft) W-SW 247 5 min 0,5 UV-I 13,4 C 26,1 C 0,0 km/h (0 Bft)
19.05.2011 08:35 19,6 C 17,0 C 14,4 C 26,6 C 26,6 C 7,0 C 66 % 88 % 100 % 1015,8 hPa 0,0 l/m 0,0 km/h (0 Bft) W-SW 247 5 min 0,6 UV-I 13,1 C 26,6 C 0,0 km/h (0 Bft)
19.05.2011 08:40 19,7 C 17,0 C 14,6 C 26,7 C 26,7 C 7,0 C 66 % 87 % 100 % 1015,8 hPa 0,0 l/m 0,0 km/h (0 Bft) SW 225 5 min 0,6 UV-I 13,2 C 26,7 C 0,0 km/h (0 Bft)
19.05.2011 08:45 19,7 C 17,0 C 14,8 C 26,8 C 26,8 C 7,1 C 67 % 87 % 100 % 1015,8 hPa 0,0 l/m 0,0 km/h (0 Bft) W-SW 247 5 min 0,8 UV-I 13,4 C 26,8 C 0,0 km/h (0 Bft)
19.05.2011 08:50 19,3 C 17,0 C 14,9 C 27,4 C 27,4 C 8,1 C 68 % 87 % 100 % 1015,8 hPa 0,0 l/m 0,0 km/h (0 Bft) S-SW 202 5 min 0,8 UV-I 13,2 C 27,4 C 0,0 km/h (0 Bft)
19.05.2011 08:55 19,2 C 17,0 C 15,2 C 27,8 C 27,8 C 8,6 C 68 % 87 % 100 % 1015,8 hPa 0,0 l/m 0,0 km/h (0 Bft) W-SW 247 5 min 0,9 UV-I 13,1 C 27,8 C 0,0 km/h (0 Bft)
19.05.2011 09:00 19,2 C 17,0 C 15,5 C 27,7 C 27,7 C 8,5 C 69 % 87 % 100 % 1015,8 hPa 0,0 l/m 0,3 km/h (0 Bft) W-SW 247 5 min 0,9 UV-I 13,4 C 27,7 C 3,2 km/h (1 Bft)
19.05.2011 09:10 19,3 C 17,0 C 15,7 C 27,7 C 27,7 C 8,4 C 69 % 86 % 100 % 1015,8 hPa 0,0 l/m 1,8 km/h (1 Bft) N 0 10 min 1,0 UV-I 13,5 C 27,7 C 3,7 km/h (1 Bft)
19.05.2011 09:15 19,5 C 16,9 C 15,7 C 27,9 C 27,9 C 8,4 C 69 % 86 % 100 % 1015,7 hPa 0,0 l/m 2,1 km/h (1 Bft) S 180 5 min 1,1 UV-I 13,7 C 27,9 C 2,6 km/h (1 Bft)
19.05.2011 09:20 19,4 C 16,9 C 15,7 C 28,0 C 28,0 C 8,6 C 70 % 86 % 100 % 1015,7 hPa 0,0 l/m 2,1 km/h (1 Bft) W-SW 247 5 min 1,1 UV-I 13,8 C 28,0 C 3,1 km/h (1 Bft)
19.05.2011 09:25 19,7 C 16,9 C 15,7 C 28,1 C 28,1 C 8,4 C 70 % 86 % 100 % 1015,7 hPa 0,0 l/m 2,3 km/h (1 Bft) W-SW 247 5 min 1,3 UV-I 14,1 C 28,1 C 4,7 km/h (1 Bft)
19.05.2011 09:30 19,6 C 16,9 C 15,7 C 28,0 C 28,0 C 8,4 C 69 % 86 % 100 % 1015,7 hPa 0,0 l/m 2,6 km/h (1 Bft) SO 135 5 min 1,3 UV-I 13,8 C 28,0 C 1,8 km/h (1 Bft)
19.05.2011 09:35 19,9 C 17,0 C 15,7 C 28,8 C 28,8 C 8,9 C 69 % 86 % 100 % 1015,8 hPa 0,0 l/m 1,3 km/h (1 Bft) SW 225 5 min 1,3 UV-I 14,0 C 28,8 C 2,4 km/h (1 Bft)
19.05.2011 09:40 19,9 C 17,0 C 17,6 C 29,2 C 29,2 C 9,3 C 69 % 81 % 100 % 1015,8 hPa 0,0 l/m 0,6 km/h (0 Bft) N-NW 337 5 min 1,3 UV-I 14,0 C 29,2 C 1,8 km/h (1 Bft)
19.05.2011 09:45 20,1 C 17,0 C 17,6 C 29,4 C 29,4 C 9,3 C 68 % 80 % 100 % 1015,8 hPa 0,0 l/m 0,6 km/h (0 Bft) SO 135 5 min 0,8 UV-I 14,0 C 29,4 C 0,0 km/h (0 Bft)
19.05.2011 09:50 20,3 C 17,0 C 17,9 C 30,3 C 30,3 C 10,0 C 68 % 81 % 100 % 1015,8 hPa 0,0 l/m 0,3 km/h (0 Bft) S 180 5 min 0,8 UV-I 14,2 C 30,3 C 3,1 km/h (1 Bft)
19.05.2011 09:55 20,4 C 17,0 C 17,9 C 29,5 C 29,5 C 9,1 C 67 % 80 % 100 % 1015,8 hPa 0,0 l/m 1,3 km/h (1 Bft) SW 225 5 min 0,9 UV-I 14,1 C 29,5 C 1,8 km/h (1 Bft)
19.05.2011 10:00 20,5 C 17,0 C 17,9 C 28,6 C 28,6 C 8,1 C 67 % 80 % 100 % 1015,8 hPa 0,0 l/m 1,9 km/h (1 Bft) S 180 5 min 0,9 UV-I 14,2 C 28,6 C 3,7 km/h (1 Bft)
19.05.2011 10:10 20,9 C 16,9 C 17,9 C 29,3 C 29,3 C 8,4 C 66 % 80 % 100 % 1015,8 hPa 0,0 l/m 1,3 km/h (1 Bft) N 0 10 min 0,9 UV-I 14,3 C 29,3 C 2,3 km/h (1 Bft)
19.05.2011 10:15 21,2 C 16,9 C 17,9 C 30,2 C 30,2 C 9,0 C 65 % 80 % 100 % 1015,8 hPa 0,0 l/m 1,0 km/h (0 Bft) W-SW 247 5 min 1,0 UV-I 14,4 C 30,2 C 2,7 km/h (1 Bft)
19.05.2011 10:20 21,2 C 16,9 C 17,9 C 30,5 C 30,5 C 9,3 C 64 % 80 % 100 % 1015,8 hPa 0,0 l/m 1,1 km/h (1 Bft) S-SW 202 5 min 1,0 UV-I 14,1 C 30,5 C 2,7 km/h (1 Bft)
19.05.2011 10:25 21,5 C 16,9 C 17,9 C 31,0 C 31,0 C 9,5 C 63 % 80 % 100 % 1015,8 hPa 0,0 l/m 1,6 km/h (1 Bft) S-SW 202 5 min 1,1 UV-I 14,2 C 31,0 C 7,6 km/h (2 Bft)
19.05.2011 10:30 21,6 C 17,0 C 17,9 C 30,3 C 30,3 C 8,7 C 62 % 80 % 100 % 1015,8 hPa 0,0 l/m 3,1 km/h (1 Bft) SW 225 5 min 1,1 UV-I 14,0 C 30,3 C 5,1 km/h (1 Bft)
19.05.2011 10:35 21,6 C 17,0 C 17,9 C 29,3 C 29,3 C 7,7 C 61 % 80 % 100 % 1015,9 hPa 0,0 l/m 5,6 km/h (1 Bft) S 180 5 min 2,1 UV-I 13,7 C 29,3 C 11,9 km/h (2 Bft)
19.05.2011 10:40 21,7 C 17,0 C 17,9 C 28,7 C 28,7 C 7,0 C 61 % 80 % 100 % 1015,9 hPa 0,0 l/m 6,1 km/h (2 Bft) S 180 5 min 2,1 UV-I 13,8 C 28,7 C 6,8 km/h (2 Bft)
19.05.2011 10:45 22,1 C 17,0 C 17,9 C 28,6 C 28,6 C 6,5 C 61 % 80 % 100 % 1015,9 hPa 0,0 l/m 5,5 km/h (1 Bft) SW 225 5 min 1,7 UV-I 14,2 C 28,6 C 4,7 km/h (1 Bft)
19.05.2011 10:50 22,0 C 17,0 C 17,9 C 28,9 C 28,9 C 6,9 C 59 % 80 % 100 % 1015,9 hPa 0,0 l/m 4,7 km/h (1 Bft) W-SW 247 5 min 1,7 UV-I 13,6 C 28,9 C 6,3 km/h (2 Bft)
19.05.2011 10:55 22,1 C 17,0 C 17,9 C 28,8 C 28,8 C 6,7 C 59 % 80 % 100 % 1015,6 hPa 0,0 l/m 4,3 km/h (1 Bft) S-SW 202 5 min 1,3 UV-I 13,7 C 28,8 C 0,0 km/h (0 Bft)
19.05.2011 11:00 22,2 C 17,1 C 17,9 C 29,1 C 29,1 C 6,9 C 58 % 80 % 100 % 1015,6 hPa 0,0 l/m 4,3 km/h (1 Bft) S-SO 157 5 min 1,3 UV-I 13,5 C 29,1 C 3,2 km/h (1 Bft)
19.05.2011 11:10 22,7 C 17,1 C 17,9 C 29,1 C 29,1 C 6,4 C 56 % 80 % 100 % 1015,6 hPa 0,0 l/m 4,2 km/h (1 Bft) N 0 10 min 1,3 UV-I 13,5 C 29,1 C 3,4 km/h (1 Bft)
19.05.2011 11:15 23,0 C 17,1 C 17,9 C 29,6 C 29,6 C 6,6 C 56 % 80 % 100 % 1015,7 hPa 0,0 l/m 3,1 km/h (1 Bft) S-SO 157 5 min 1,7 UV-I 13,7 C 29,6 C 1,8 km/h (1 Bft)
19.05.2011 11:20 23,3 C 17,1 C 17,9 C 29,6 C 29,6 C 6,3 C 54 % 80 % 100 % 1015,7 hPa 0,0 l/m 3,7 km/h (1 Bft) SW 225 5 min 1,7 UV-I 13,5 C 29,6 C 7,9 km/h (2 Bft)
19.05.2011 11:25 23,2 C 17,1 C 17,9 C 29,6 C 29,6 C 6,4 C 52 % 80 % 100 % 1015,7 hPa 0,0 l/m 4,0 km/h (1 Bft) SW 225 5 min 1,4 UV-I 12,8 C 29,6 C 2,9 km/h (1 Bft)
19.05.2011 11:30 23,3 C 17,1 C 17,9 C 29,6 C 29,6 C 6,3 C 53 % 80 % 100 % 1015,7 hPa 0,0 l/m 4,8 km/h (1 Bft) W-SW 247 5 min 1,4 UV-I 13,2 C 29,6 C 6,6 km/h (2 Bft)
19.05.2011 11:35 23,5 C 17,1 C 17,9 C 29,5 C 29,5 C 6,0 C 52 % 80 % 100 % 1015,8 hPa 0,0 l/m 4,7 km/h (1 Bft) W 270 5 min 1,4 UV-I 13,1 C 29,5 C 5,5 km/h (1 Bft)
19.05.2011 11:40 23,5 C 17,1 C 17,9 C 29,8 C 29,8 C 6,3 C 52 % 80 % 100 % 1015,8 hPa 0,0 l/m 4,2 km/h (1 Bft) W-SW 247 5 min 1,4 UV-I 13,1 C 29,8 C 6,4 km/h (2 Bft)
19.05.2011 11:45 23,6 C 17,1 C 22,1 C 29,6 C 29,6 C 6,0 C 51 % 60 % 100 % 1015,8 hPa 0,0 l/m 4,7 km/h (1 Bft) S-SO 157 5 min 1,5 UV-I 12,9 C 29,6 C 5,3 km/h (1 Bft)
19.05.2011 11:50 23,5 C 17,2 C 22,3 C 29,1 C 29,1 C 5,6 C 51 % 57 % 100 % 1015,8 hPa 0,0 l/m 6,0 km/h (2 Bft) S 180 5 min 1,5 UV-I 12,8 C 29,1 C 3,4 km/h (1 Bft)
19.05.2011 11:55 23,7 C 17,2 C 22,4 C 28,5 C 28,5 C 4,8 C 50 % 58 % 100 % 1015,4 hPa 0,0 l/m 5,1 km/h (1 Bft) S 180 5 min 1,7 UV-I 12,6 C 28,5 C 4,5 km/h (1 Bft)
19.05.2011 12:00 23,8 C 17,2 C 22,6 C 28,5 C 28,5 C 4,7 C 53 % 58 % 100 % 1015,4 hPa 0,0 l/m 5,1 km/h (1 Bft) W-SW 247 5 min 1,7 UV-I 13,6 C 28,5 C 7,2 km/h (2 Bft)
19.05.2011 12:10 24,1 C 17,3 C 23,3 C 29,3 C 29,3 C 5,2 C 54 % 58 % 100 % 1015,4 hPa 0,0 l/m 4,8 km/h (1 Bft) N 0 10 min 1,6 UV-I 14,2 C 29,3 C 8,9 km/h (2 Bft)
19.05.2011 12:15 24,1 C 17,3 C 23,3 C 29,4 C 29,4 C 5,3 C 54 % 57 % 100 % 1015,6 hPa 0,0 l/m 5,1 km/h (1 Bft) N 360 5 min 3,0 UV-I 14,2 C 29,4 C 14,3 km/h (3 Bft)
19.05.2011 12:20 24,2 C 17,3 C 23,3 C 29,4 C 29,4 C 5,2 C 53 % 58 % 100 % 1015,6 hPa 0,0 l/m 4,5 km/h (1 Bft) N-NW 337 5 min 3,0 UV-I 14,0 C 29,4 C 1,6 km/h (1 Bft)
19.05.2011 12:25 24,3 C 17,3 C 23,5 C 29,8 C 29,8 C 5,5 C 53 % 60 % 100 % 1015,6 hPa 0,0 l/m 4,0 km/h (1 Bft) SW 225 5 min 3,3 UV-I 14,1 C 29,8 C 4,5 km/h (1 Bft)
19.05.2011 12:30 24,1 C 17,3 C 23,5 C 29,8 C 29,8 C 5,7 C 51 % 54 % 100 % 1015,6 hPa 0,0 l/m 4,5 km/h (1 Bft) S 180 5 min 3,3 UV-I 13,3 C 29,8 C 3,9 km/h (1 Bft)
19.05.2011 12:35 23,9 C 17,4 C 23,3 C 28,3 C 28,3 C 4,4 C 51 % 55 % 100 % 1015,6 hPa 0,0 l/m 3,9 km/h (1 Bft) NW 315 5 min 1,9 UV-I 13,1 C 28,3 C 4,8 km/h (1 Bft)
19.05.2011 12:40 23,8 C 17,4 C 23,2 C 27,7 C 27,7 C 3,9 C 51 % 55 % 100 % 1015,6 hPa 0,0 l/m 3,5 km/h (1 Bft) SW 225 5 min 1,9 UV-I 13,0 C 27,7 C 5,8 km/h (2 Bft)
19.05.2011 12:45 23,7 C 17,4 C 23,1 C 27,0 C 27,0 C 3,3 C 51 % 56 % 87 % 1015,6 hPa 0,0 l/m 3,5 km/h (1 Bft) SW 225 5 min 1,4 UV-I 13,0 C 27,0 C 4,3 km/h (1 Bft)
19.05.2011 12:50 23,6 C 17,4 C 22,9 C 26,8 C 26,8 C 3,2 C 52 % 57 % 84 % 1015,6 hPa 0,0 l/m 3,7 km/h (1 Bft) SW 225 0 min 1,4 UV-I 13,2 C 26,8 C 5,6 km/h (1 Bft)
19.05.2011 12:55 23,7 C 17,4 C 22,9 C 26,6 C 26,6 C 2,9 C 52 % 56 % 76 % 1015,5 hPa 0,0 l/m 3,5 km/h (1 Bft) N-NO 22 0 min 1,2 UV-I 13,2 C 26,6 C 6,6 km/h (2 Bft)
19.05.2011 13:00 23,5 C 17,4 C 22,9 C 26,4 C 26,4 C 2,9 C 52 % 56 % 76 % 1015,5 hPa 0,0 l/m 4,0 km/h (1 Bft) S-SO 157 0 min 1,2 UV-I 13,1 C 26,4 C 4,7 km/h (1 Bft)
19.05.2011 13:10 23,2 C 17,6 C 22,5 C 25,7 C 25,7 C 2,5 C 52 % 59 % 66 % 1015,5 hPa 0,0 l/m 2,7 km/h (1 Bft) N 0 0 min 0,7 UV-I 12,8 C 25,7 C 5,3 km/h (1 Bft)
19.05.2011 13:15 23,3 C 17,6 C 22,4 C 25,4 C 25,4 C 2,1 C 52 % 59 % 55 % 1015,1 hPa 0,0 l/m 2,3 km/h (1 Bft) SW 225 0 min 0,6 UV-I 12,9 C 25,4 C 2,7 km/h (1 Bft)
19.05.2011 13:20 23,2 C 17,6 C 22,3 C 25,3 C 25,3 C 2,1 C 53 % 57 % 55 % 1015,1 hPa 0,0 l/m 2,4 km/h (1 Bft) S 180 0 min 0,6 UV-I 13,1 C 25,3 C 3,1 km/h (1 Bft)
19.05.2011 13:25 23,3 C 17,6 C 22,4 C 25,2 C 25,2 C 1,9 C 52 % 56 % 50 % 1015,1 hPa 0,0 l/m 3,5 km/h (1 Bft) SW 225 0 min 1,0 UV-I 12,9 C 25,2 C 6,1 km/h (2 Bft)
19.05.2011 13:30 23,5 C 17,7 C 22,7 C 25,9 C 25,9 C 2,4 C 51 % 58 % 63 % 1015,1 hPa 0,0 l/m 3,5 km/h (1 Bft) W-SW 247 0 min 1,0 UV-I 12,8 C 25,9 C 2,6 km/h (1 Bft)
19.05.2011 13:35 23,6 C 17,6 C 22,9 C 27,1 C 27,1 C 3,5 C 50 % 56 % 92 % 1015,6 hPa 0,0 l/m 3,1 km/h (1 Bft) W-SW 247 5 min 2,3 UV-I 12,6 C 27,1 C 6,3 km/h (2 Bft)
19.05.2011 13:40 23,8 C 17,6 C 23,1 C 27,6 C 27,6 C 3,8 C 49 % 54 % 100 % 1015,6 hPa 0,0 l/m 3,4 km/h (1 Bft) N 360 5 min 2,3 UV-I 12,4 C 27,6 C 3,9 km/h (1 Bft)
19.05.2011 13:45 24,0 C 17,7 C 23,7 C 28,9 C 28,9 C 4,9 C 48 % 53 % 100 % 1015,6 hPa 0,0 l/m 4,3 km/h (1 Bft) S-SW 202 5 min 3,0 UV-I 12,3 C 28,9 C 2,6 km/h (1 Bft)
19.05.2011 13:50 23,9 C 17,7 C 23,5 C 28,4 C 28,4 C 4,5 C 48 % 50 % 100 % 1015,6 hPa 0,0 l/m 4,2 km/h (1 Bft) S-SO 157 5 min 3,0 UV-I 12,2 C 28,4 C 5,0 km/h (1 Bft)
19.05.2011 13:55 23,9 C 17,7 C 23,2 C 27,8 C 27,8 C 3,9 C 48 % 52 % 100 % 1015,6 hPa 0,0 l/m 3,9 km/h (1 Bft) W-SW 247 5 min 1,9 UV-I 12,2 C 27,8 C 3,1 km/h (1 Bft)
19.05.2011 14:00 24,1 C 17,7 C 23,3 C 28,0 C 28,0 C 3,9 C 49 % 59 % 100 % 1015,6 hPa 0,0 l/m 3,2 km/h (1 Bft) S-SW 202 5 min 1,9 UV-I 12,7 C 28,0 C 3,4 km/h (1 Bft)
19.05.2011 14:10 24,5 C 17,8 C 24,1 C 30,1 C 30,1 C 5,6 C 47 % 53 % 100 % 1015,6 hPa 0,0 l/m 2,4 km/h (1 Bft) N 0 10 min 3,4 UV-I 12,4 C 30,1 C 2,9 km/h (1 Bft)
19.05.2011 14:15 24,3 C 17,8 C 23,7 C 29,4 C 29,4 C 5,1 C 46 % 53 % 100 % 1015,3 hPa 0,0 l/m 1,0 km/h (0 Bft) O-SO 112 5 min 1,8 UV-I 11,9 C 29,4 C 0,0 km/h (0 Bft)
19.05.2011 14:20 24,3 C 17,8 C 23,4 C 29,1 C 29,1 C 4,8 C 46 % 56 % 100 % 1015,3 hPa 0,0 l/m 0,6 km/h (0 Bft) S 180 5 min 1,8 UV-I 11,9 C 29,1 C 0,0 km/h (0 Bft)
19.05.2011 14:25 24,4 C 17,9 C 23,2 C 29,1 C 29,1 C 4,7 C 45 % 53 % 100 % 1015,3 hPa 0,0 l/m 0,0 km/h (0 Bft) O-NO 67 5 min 1,7 UV-I 11,7 C 29,1 C 1,8 km/h (1 Bft)
19.05.2011 14:30 24,5 C 17,9 C 23,5 C 28,9 C 28,9 C 4,4 C 45 % 51 % 100 % 1015,3 hPa 0,0 l/m 0,8 km/h (0 Bft) N-NO 22 5 min 1,7 UV-I 11,8 C 28,9 C 2,4 km/h (1 Bft)
19.05.2011 14:35 24,5 C 17,9 C 23,6 C 28,9 C 28,9 C 4,4 C 46 % 51 % 100 % 1015,1 hPa 0,0 l/m 1,0 km/h (0 Bft) NW 315 5 min 1,8 UV-I 12,1 C 28,9 C 1,8 km/h (1 Bft)
19.05.2011 14:40 24,9 C 17,9 C 24,1 C 29,7 C 29,7 C 4,8 C 46 % 51 % 100 % 1015,1 hPa 0,0 l/m 1,0 km/h (0 Bft) O-NO 67 5 min 1,8 UV-I 12,5 C 29,7 C 5,1 km/h (1 Bft)
19.05.2011 14:45 25,2 C 17,9 C 25,3 C 30,7 C 30,7 C 5,5 C 47 % 50 % 100 % 1015,1 hPa 0,0 l/m 2,3 km/h (1 Bft) O-NO 67 5 min 3,4 UV-I 13,1 C 30,7 C 5,3 km/h (1 Bft)
19.05.2011 14:50 25,3 C 17,9 C 25,8 C 31,1 C 31,1 C 5,8 C 47 % 49 % 100 % 1015,1 hPa 0,0 l/m 3,1 km/h (1 Bft) O-NO 67 5 min 3,4 UV-I 13,2 C 31,1 C 2,1 km/h (1 Bft)
19.05.2011 14:55 25,6 C 18,0 C 26,5 C 31,6 C 31,6 C 6,0 C 46 % 47 % 100 % 1015,1 hPa 0,0 l/m 2,9 km/h (1 Bft) N-NO 22 5 min 3,1 UV-I 13,1 C 31,6 C 2,9 km/h (1 Bft)
19.05.2011 15:00 25,6 C 18,0 C 26,5 C 31,4 C 31,4 C 5,8 C 48 % 48 % 100 % 1015,1 hPa 0,0 l/m 4,3 km/h (1 Bft) O-NO 67 5 min 3,1 UV-I 13,8 C 31,4 C 8,4 km/h (2 Bft)
19.05.2011 15:10 25,2 C 18,0 C 25,7 C 29,1 C 29,1 C 3,9 C 50 % 52 % 100 % 1015,1 hPa 0,0 l/m 2,9 km/h (1 Bft) N 0 10 min 1,8 UV-I 14,0 C 29,1 C 0,0 km/h (0 Bft)
19.05.2011 15:15 25,0 C 18,0 C 25,5 C 28,9 C 28,9 C 3,9 C 46 % 47 % 100 % 1015,1 hPa 0,0 l/m 2,3 km/h (1 Bft) S 180 5 min 1,3 UV-I 12,6 C 28,9 C 14,8 km/h (3 Bft)
19.05.2011 15:20 24,5 C 18,1 C 24,5 C 27,6 C 27,6 C 3,1 C 45 % 46 % 82 % 1015,1 hPa 0,0 l/m 4,8 km/h (1 Bft) W-SW 247 0 min 1,3 UV-I 11,8 C 27,6 C 4,5 km/h (1 Bft)
19.05.2011 15:25 24,0 C 18,1 C 23,3 C 25,6 C 25,6 C 1,6 C 47 % 49 % 42 % 1015,1 hPa 0,0 l/m 6,9 km/h (2 Bft) S-SO 157 0 min 0,8 UV-I 12,0 C 25,6 C 8,5 km/h (2 Bft)
19.05.2011 15:30 23,8 C 18,1 C 23,1 C 24,9 C 24,9 C 1,1 C 47 % 51 % 29 % 1015,1 hPa 0,0 l/m 5,3 km/h (1 Bft) O-NO 67 0 min 0,8 UV-I 11,8 C 24,9 C 6,3 km/h (2 Bft)
19.05.2011 15:35 23,9 C 18,1 C 23,1 C 24,8 C 24,8 C 0,9 C 48 % 51 % 24 % 1015,4 hPa 0,0 l/m 4,7 km/h (1 Bft) SW 225 0 min 1,2 UV-I 12,2 C 24,8 C 7,1 km/h (2 Bft)
19.05.2011 15:40 23,9 C 18,1 C 23,4 C 25,4 C 25,4 C 1,5 C 48 % 52 % 39 % 1015,4 hPa 0,0 l/m 4,5 km/h (1 Bft) S-SW 202 0 min 1,2 UV-I 12,2 C 25,4 C 1,9 km/h (1 Bft)
19.05.2011 15:45 23,7 C 18,2 C 22,9 C 25,6 C 25,6 C 1,9 C 48 % 53 % 50 % 1015,4 hPa 0,0 l/m 3,1 km/h (1 Bft) SO 135 0 min 1,1 UV-I 12,0 C 25,6 C 2,9 km/h (1 Bft)
19.05.2011 15:50 23,5 C 18,2 C 22,4 C 25,3 C 25,3 C 1,8 C 49 % 54 % 47 % 1015,4 hPa 0,0 l/m 1,9 km/h (1 Bft) SO 135 0 min 1,1 UV-I 12,2 C 25,3 C 0,0 km/h (0 Bft)
19.05.2011 15:55 23,5 C 18,2 C 22,3 C 24,7 C 24,7 C 1,2 C 49 % 56 % 32 % 1014,9 hPa 0,0 l/m 2,3 km/h (1 Bft) W-SW 247 0 min 0,6 UV-I 12,2 C 24,7 C 2,4 km/h (1 Bft)
19.05.2011 16:00 23,2 C 18,3 C 22,1 C 24,4 C 24,4 C 1,2 C 49 % 56 % 32 % 1014,9 hPa 0,0 l/m 1,9 km/h (1 Bft) NW 315 0 min 0,6 UV-I 11,9 C 24,4 C 0,0 km/h (0 Bft)
19.05.2011 16:10 22,9 C 18,4 C 21,7 C 23,7 C 23,7 C 0,8 C 50 % 55 % 21 % 1014,9 hPa 0,0 l/m 1,4 km/h (1 Bft) N 0 0 min 0,4 UV-I 11,9 C 23,7 C 5,1 km/h (1 Bft)
19.05.2011 16:15 23,0 C 18,4 C 21,7 C 23,5 C 23,5 C 0,5 C 50 % 56 % 13 % 1015,2 hPa 0,0 l/m 1,0 km/h (0 Bft) NO 45 0 min 0,5 UV-I 12,0 C 23,5 C 2,1 km/h (1 Bft)
19.05.2011 16:20 22,7 C 18,4 C 21,5 C 23,5 C 23,5 C 0,8 C 51 % 56 % 21 % 1015,2 hPa 0,0 l/m 1,1 km/h (1 Bft) NO 45 0 min 0,5 UV-I 12,0 C 23,5 C 0,0 km/h (0 Bft)
19.05.2011 16:25 22,4 C 18,5 C 21,3 C 23,2 C 23,2 C 0,8 C 52 % 57 % 21 % 1015,2 hPa 0,0 l/m 1,1 km/h (1 Bft) O-NO 67 0 min 0,3 UV-I 12,1 C 23,2 C 0,0 km/h (0 Bft)
19.05.2011 16:30 22,3 C 18,5 C 21,1 C 22,7 C 22,7 C 0,4 C 52 % 58 % 11 % 1015,2 hPa 0,0 l/m 1,3 km/h (1 Bft) N-NO 22 0 min 0,3 UV-I 12,0 C 22,7 C 0,0 km/h (0 Bft)
19.05.2011 16:35 22,3 C 18,5 C 20,9 C 22,2 C 22,1 C 0,0 C 52 % 59 % 0 % 1015,1 hPa 0,0 l/m 1,3 km/h (1 Bft) N-NO 22 0 min 0,2 UV-I 12,0 C 22,1 C 0,0 km/h (0 Bft)
19.05.2011 16:40 22,1 C 18,5 C 20,7 C 22,0 C 21,8 C 0,0 C 53 % 61 % 0 % 1015,1 hPa 0,0 l/m 0,6 km/h (0 Bft) NO 45 0 min 0,2 UV-I 12,1 C 21,8 C 0,0 km/h (0 Bft)
19.05.2011 16:45 22,1 C 18,5 C 20,5 C 21,8 C 21,2 C 0,0 C 54 % 61 % 0 % 1015,1 hPa 0,0 l/m 0,0 km/h (0 Bft) NO 45 0 min 0,0 UV-I 12,3 C 21,2 C 0,0 km/h (0 Bft)
19.05.2011 16:50 21,9 C 18,6 C 20,5 C 21,5 C 20,7 C 0,0 C 56 % 61 % 0 % 1015,1 hPa 0,0 l/m 0,0 km/h (0 Bft) O-NO 67 0 min 0,0 UV-I 12,7 C 20,7 C 1,9 km/h (1 Bft)
19.05.2011 16:55 21,3 C 18,7 C 20,1 C 20,8 C 19,8 C 0,0 C 58 % 64 % 0 % 1015,7 hPa 0,0 l/m 0,2 km/h (0 Bft) N-NO 22 0 min 0,0 UV-I 12,7 C 19,8 C 0,0 km/h (0 Bft)
19.05.2011 17:00 21,2 C 18,7 C 19,9 C 20,6 C 19,3 C 0,0 C 59 % 65 % 0 % 1015,7 hPa 0,0 l/m 0,6 km/h (0 Bft) NO 45 0 min 0,0 UV-I 12,9 C 19,3 C 3,5 km/h (1 Bft)
19.05.2011 17:10 20,4 C 18,9 C 19,3 C 19,7 C 18,2 C 0,0 C 63 % 68 % 0 % 1015,7 hPa 0,0 l/m 3,5 km/h (1 Bft) N 0 0 min 0,0 UV-I 13,1 C 18,2 C 3,2 km/h (1 Bft)
19.05.2011 17:15 20,3 C 18,9 C 18,9 C 19,4 C 17,5 C 0,0 C 64 % 69 % 0 % 1015,0 hPa 0,0 l/m 1,4 km/h (1 Bft) O-NO 67 0 min 0,0 UV-I 13,3 C 17,5 C 0,0 km/h (0 Bft)
19.05.2011 17:20 20,2 C 18,8 C 18,8 C 19,3 C 17,5 C 0,0 C 65 % 71 % 0 % 1015,0 hPa 0,0 l/m 0,8 km/h (0 Bft) NW 315 0 min 0,0 UV-I 13,4 C 17,5 C 2,4 km/h (1 Bft)
19.05.2011 17:25 20,4 C 18,9 C 18,9 C 19,7 C 18,2 C 0,0 C 66 % 73 % 0 % 1015,0 hPa 0,0 l/m 0,6 km/h (0 Bft) NO 45 0 min 0,2 UV-I 13,8 C 18,2 C 0,0 km/h (0 Bft)
19.05.2011 17:30 20,4 C 18,9 C 18,8 C 19,8 C 18,7 C 0,0 C 66 % 73 % 0 % 1015,0 hPa 0,0 l/m 0,5 km/h (0 Bft) NW 315 0 min 0,2 UV-I 13,8 C 18,7 C 0,0 km/h (0 Bft)
19.05.2011 17:35 20,9 C 18,8 C 19,1 C 20,6 C 20,1 C 0,0 C 66 % 74 % 0 % 1015,0 hPa 0,0 l/m 0,5 km/h (0 Bft) NW 315 0 min 0,4 UV-I 14,3 C 20,1 C 0,0 km/h (0 Bft)
19.05.2011 17:40 21,2 C 18,8 C 19,3 C 21,4 C 21,4 C 0,2 C 64 % 72 % 5 % 1015,0 hPa 0,0 l/m 0,5 km/h (0 Bft) W 270 0 min 0,4 UV-I 14,1 C 21,4 C 0,0 km/h (0 Bft)
19.05.2011 17:45 21,6 C 18,8 C 19,6 C 22,9 C 22,9 C 1,3 C 63 % 72 % 34 % 1015,0 hPa 0,0 l/m 0,3 km/h (0 Bft) W-SW 247 0 min 0,5 UV-I 14,2 C 22,9 C 0,0 km/h (0 Bft)
19.05.2011 17:50 21,7 C 18,8 C 19,9 C 24,0 C 24,0 C 2,3 C 62 % 69 % 61 % 1015,0 hPa 0,0 l/m 0,3 km/h (0 Bft) S-SO 157 0 min 0,5 UV-I 14,1 C 24,0 C 1,8 km/h (1 Bft)
19.05.2011 17:55 22,2 C 18,8 C 20,3 C 24,8 C 24,8 C 2,6 C 61 % 70 % 68 % 1015,0 hPa 0,0 l/m 0,5 km/h (0 Bft) NO 45 0 min 0,5 UV-I 14,3 C 24,8 C 0,0 km/h (0 Bft)
19.05.2011 18:00 22,3 C 18,8 C 20,4 C 25,8 C 25,8 C 3,5 C 61 % 70 % 92 % 1015,0 hPa 0,0 l/m 0,8 km/h (0 Bft) NO 45 5 min 0,5 UV-I 14,4 C 25,8 C 3,1 km/h (1 Bft)
19.05.2011 18:10 22,9 C 18,8 C 20,8 C 27,4 C 27,4 C 4,5 C 59 % 68 % 100 % 1015,0 hPa 0,0 l/m 0,6 km/h (0 Bft) N 0 10 min 0,4 UV-I 14,5 C 27,4 C 0,0 km/h (0 Bft)
19.05.2011 18:15 23,0 C 18,8 C 21,2 C 28,1 C 28,1 C 5,1 C 58 % 67 % 100 % 1014,8 hPa 0,0 l/m 0,5 km/h (0 Bft) S-SO 157 5 min 0,4 UV-I 14,3 C 28,1 C 1,9 km/h (1 Bft)
19.05.2011 18:20 23,3 C 18,8 C 21,7 C 28,3 C 28,3 C 5,0 C 58 % 67 % 100 % 1014,8 hPa 0,0 l/m 1,3 km/h (1 Bft) S-SO 157 5 min 0,4 UV-I 14,6 C 28,3 C 1,9 km/h (1 Bft)
19.05.2011 18:25 23,1 C 18,9 C 21,6 C 28,1 C 28,1 C 5,0 C 57 % 64 % 100 % 1014,8 hPa 0,0 l/m 0,8 km/h (0 Bft) O-NO 67 5 min 0,3 UV-I 14,1 C 28,1 C 0,0 km/h (0 Bft)
19.05.2011 18:30 22,8 C 18,9 C 21,3 C 27,2 C 27,2 C 4,4 C 57 % 64 % 100 % 1014,8 hPa 0,0 l/m 0,2 km/h (0 Bft) O-NO 67 5 min 0,3 UV-I 13,8 C 27,2 C 0,0 km/h (0 Bft)
19.05.2011 18:35 22,4 C 18,8 C 21,1 C 25,7 C 25,7 C 3,3 C 57 % 64 % 87 % 1014,9 hPa 0,0 l/m 0,0 km/h (0 Bft) O-NO 67 5 min 0,2 UV-I 13,5 C 25,7 C 0,0 km/h (0 Bft)
19.05.2011 18:40 22,6 C 18,8 C 20,9 C 25,0 C 25,0 C 2,4 C 56 % 64 % 63 % 1014,9 hPa 0,0 l/m 0,0 km/h (0 Bft) O-NO 67 0 min 0,2 UV-I 13,4 C 25,0 C 0,0 km/h (0 Bft)
19.05.2011 18:45 22,3 C 18,9 C 20,8 C 24,7 C 24,7 C 2,4 C 57 % 65 % 63 % 1014,9 hPa 0,0 l/m 0,0 km/h (0 Bft) O-NO 67 0 min 0,1 UV-I 13,4 C 24,7 C 1,6 km/h (1 Bft)
19.05.2011 18:50 22,1 C 18,9 C 20,7 C 24,2 C 24,2 C 2,1 C 59 % 66 % 55 % 1014,9 hPa 0,0 l/m 0,5 km/h (0 Bft) O-NO 67 0 min 0,1 UV-I 13,7 C 24,2 C 1,6 km/h (1 Bft)
19.05.2011 18:55 21,9 C 18,9 C 20,5 C 23,2 C 23,2 C 1,3 C 60 % 67 % 34 % 1015,2 hPa 0,0 l/m 0,8 km/h (0 Bft) NO 45 0 min 0,1 UV-I 13,8 C 23,2 C 0,0 km/h (0 Bft)
19.05.2011 19:00 21,8 C 18,9 C 20,3 C 22,8 C 22,8 C 1,0 C 60 % 68 % 26 % 1015,2 hPa 0,0 l/m 0,5 km/h (0 Bft) NO 45 0 min 0,1 UV-I 13,7 C 22,8 C 0,0 km/h (0 Bft)
19.05.2011 19:10 21,5 C 18,9 C 20,1 C 22,0 C 22,0 C 0,5 C 60 % 69 % 13 % 1015,2 hPa 0,0 l/m 0,0 km/h (0 Bft) N 0 0 min 0,1 UV-I 13,4 C 22,0 C 0,0 km/h (0 Bft)
19.05.2011 19:15 21,4 C 18,9 C 19,9 C 21,5 C 21,5 C 0,1 C 60 % 68 % 3 % 1014,9 hPa 0,0 l/m 0,0 km/h (0 Bft) O-NO 67 0 min 0,0 UV-I 13,3 C 21,5 C 0,0 km/h (0 Bft)
19.05.2011 19:20 21,3 C 18,9 C 19,7 C 21,3 C 21,3 C 0,0 C 60 % 69 % 0 % 1014,9 hPa 0,0 l/m 0,0 km/h (0 Bft) O-NO 67 0 min 0,0 UV-I 13,2 C 21,3 C 0,0 km/h (0 Bft)
19.05.2011 19:25 21,2 C 18,9 C 19,5 C 21,1 C 20,9 C 0,0 C 61 % 70 % 0 % 1014,9 hPa 0,0 l/m 0,5 km/h (0 Bft) S 180 0 min 0,0 UV-I 13,4 C 20,9 C 4,3 km/h (1 Bft)
19.05.2011 19:30 21,3 C 18,9 C 19,5 C 21,1 C 20,6 C 0,0 C 61 % 70 % 0 % 1014,9 hPa 0,0 l/m 1,6 km/h (1 Bft) NO 45 0 min 0,0 UV-I 13,5 C 20,6 C 2,1 km/h (1 Bft)
19.05.2011 19:35 21,1 C 18,9 C 19,4 C 20,8 C 20,2 C 0,0 C 61 % 70 % 0 % 1015,5 hPa 0,0 l/m 1,9 km/h (1 Bft) S 180 0 min 0,0 UV-I 13,3 C 20,2 C 0,0 km/h (0 Bft)
19.05.2011 19:40 21,0 C 18,9 C 19,4 C 20,7 C 20,1 C 0,0 C 61 % 71 % 0 % 1015,5 hPa 0,0 l/m 1,1 km/h (1 Bft) S-SO 157 0 min 0,0 UV-I 13,2 C 20,1 C 1,6 km/h (1 Bft)
19.05.2011 19:45 20,9 C 18,9 C 19,3 C 20,6 C 20,0 C 0,0 C 61 % 70 % 0 % 1015,5 hPa 0,0 l/m 0,2 km/h (0 Bft) O-NO 67 0 min 0,0 UV-I 13,1 C 20,0 C 0,0 km/h (0 Bft)
19.05.2011 19:50 20,8 C 18,9 C 19,3 C 20,5 C 19,9 C 0,0 C 63 % 72 % 0 % 1015,5 hPa 0,0 l/m 0,2 km/h (0 Bft) S-SO 157 0 min 0,0 UV-I 13,5 C 19,9 C 1,8 km/h (1 Bft)
19.05.2011 19:55 20,9 C 18,9 C 19,1 C 20,5 C 19,8 C 0,0 C 63 % 71 % 0 % 1015,2 hPa 0,0 l/m 0,2 km/h (0 Bft) S-SO 157 0 min 0,0 UV-I 13,6 C 19,8 C 0,0 km/h (0 Bft)
19.05.2011 20:00 21,0 C 18,9 C 19,2 C 20,7 C 20,0 C 0,0 C 62 % 72 % 0 % 1015,2 hPa 0,0 l/m 0,2 km/h (0 Bft) O-NO 67 0 min 0,0 UV-I 13,4 C 20,0 C 0,0 km/h (0 Bft)
19.05.2011 20:10 20,7 C 18,9 C 19,1 C 20,5 C 20,0 C 0,0 C 64 % 72 % 0 % 1015,2 hPa 0,0 l/m 0,8 km/h (0 Bft) N 0 0 min 0,0 UV-I 13,6 C 20,0 C 0,0 km/h (0 Bft)
19.05.2011 20:15 20,5 C 18,9 C 19,1 C 20,3 C 19,8 C 0,0 C 65 % 72 % 0 % 1015,1 hPa 0,0 l/m 1,8 km/h (1 Bft) O-NO 67 0 min 0,0 UV-I 13,7 C 19,8 C 3,4 km/h (1 Bft)
19.05.2011 20:20 20,4 C 18,9 C 19,0 C 20,2 C 19,8 C 0,0 C 63 % 71 % 0 % 1015,1 hPa 0,0 l/m 2,9 km/h (1 Bft) O-NO 67 0 min 0,0 UV-I 13,1 C 19,8 C 4,3 km/h (1 Bft)
19.05.2011 20:25 20,4 C 18,9 C 18,9 C 20,1 C 19,5 C 0,0 C 64 % 73 % 0 % 1015,1 hPa 0,0 l/m 2,1 km/h (1 Bft) W-SW 247 0 min 0,0 UV-I 13,4 C 19,5 C 2,1 km/h (1 Bft)
19.05.2011 20:30 20,3 C 18,9 C 18,8 C 20,0 C 19,3 C 0,0 C 65 % 73 % 0 % 1015,1 hPa 0,0 l/m 0,8 km/h (0 Bft) W 270 0 min 0,0 UV-I 13,5 C 19,3 C 0,0 km/h (0 Bft)
19.05.2011 20:35 20,0 C 18,9 C 18,7 C 19,6 C 18,9 C 0,0 C 67 % 74 % 0 % 1015,1 hPa 0,0 l/m 0,6 km/h (0 Bft) N-NO 22 0 min 0,0 UV-I 13,7 C 18,9 C 0,0 km/h (0 Bft)
19.05.2011 20:40 19,9 C 18,9 C 18,5 C 19,5 C 18,8 C 0,0 C 67 % 74 % 0 % 1015,1 hPa 0,0 l/m 1,8 km/h (1 Bft) N 360 0 min 0,0 UV-I 13,6 C 18,8 C 3,5 km/h (1 Bft)
19.05.2011 20:45 19,9 C 18,8 C 18,5 C 19,5 C 18,6 C 0,0 C 66 % 73 % 0 % 1015,1 hPa 0,0 l/m 2,1 km/h (1 Bft) N 360 0 min 0,0 UV-I 13,4 C 18,6 C 2,4 km/h (1 Bft)
19.05.2011 20:50 19,9 C 18,8 C 18,5 C 19,5 C 18,6 C 0,0 C 65 % 72 % 0 % 1015,1 hPa 0,0 l/m 1,4 km/h (1 Bft) NO 45 0 min 0,0 UV-I 13,1 C 18,6 C 2,3 km/h (1 Bft)
19.05.2011 20:55 19,9 C 18,9 C 18,5 C 19,4 C 18,5 C 0,0 C 65 % 73 % 0 % 1015,4 hPa 0,0 l/m 1,0 km/h (0 Bft) NW 315 0 min 0,0 UV-I 13,1 C 18,5 C 0,0 km/h (0 Bft)
19.05.2011 21:00 19,8 C 18,8 C 18,5 C 19,3 C 18,4 C 0,0 C 66 % 73 % 0 % 1015,4 hPa 0,0 l/m 0,5 km/h (0 Bft) O-NO 67 0 min 0,0 UV-I 13,3 C 18,4 C 0,0 km/h (0 Bft)
19.05.2011 21:10 19,6 C 18,9 C 18,2 C 19,1 C 18,1 C 0,0 C 68 % 75 % 0 % 1015,4 hPa 0,0 l/m 0,3 km/h (0 Bft) N 0 0 min 0,0 UV-I 13,5 C 18,1 C 0,0 km/h (0 Bft)
19.05.2011 21:15 19,7 C 18,8 C 18,0 C 19,1 C 18,0 C 0,0 C 69 % 76 % 0 % 1015,8 hPa 0,0 l/m 0,6 km/h (0 Bft) S-SW 202 0 min 0,0 UV-I 13,8 C 18,0 C 2,1 km/h (1 Bft)
19.05.2011 21:20 19,6 C 18,8 C 17,9 C 19,0 C 17,9 C 0,0 C 69 % 76 % 0 % 1015,8 hPa 0,0 l/m 0,5 km/h (0 Bft) NW 315 0 min 0,0 UV-I 13,8 C 17,9 C 0,0 km/h (0 Bft)
19.05.2011 21:25 19,5 C 18,8 C 17,9 C 18,9 C 17,8 C 0,0 C 68 % 76 % 0 % 1015,8 hPa 0,0 l/m 0,8 km/h (0 Bft) S 180 0 min 0,0 UV-I 13,4 C 17,8 C 3,1 km/h (1 Bft)
19.05.2011 21:30 19,5 C 18,8 C 17,9 C 18,9 C 17,7 C 0,0 C 69 % 77 % 0 % 1015,8 hPa 0,0 l/m 1,4 km/h (1 Bft) SW 225 0 min 0,0 UV-I 13,7 C 17,7 C 0,0 km/h (0 Bft)
19.05.2011 21:35 19,4 C 18,8 C 17,6 C 18,7 C 17,4 C 0,0 C 69 % 77 % 0 % 1016,2 hPa 0,0 l/m 1,3 km/h (1 Bft) NW 315 0 min 0,0 UV-I 13,6 C 17,4 C 0,0 km/h (0 Bft)
19.05.2011 21:40 19,3 C 18,8 C 17,7 C 18,6 C 17,2 C 0,0 C 69 % 78 % 0 % 1016,2 hPa 0,0 l/m 0,3 km/h (0 Bft) W-SW 247 0 min 0,0 UV-I 13,5 C 17,2 C 2,1 km/h (1 Bft)
19.05.2011 21:45 19,3 C 18,8 C 17,4 C 18,6 C 17,1 C 0,0 C 69 % 78 % 0 % 1016,2 hPa 0,0 l/m 0,5 km/h (0 Bft) SW 225 0 min 0,0 UV-I 13,5 C 17,1 C 2,1 km/h (1 Bft)
19.05.2011 21:50 19,2 C 18,8 C 17,5 C 18,4 C 16,9 C 0,0 C 69 % 78 % 0 % 1016,2 hPa 0,0 l/m 0,5 km/h (0 Bft) SO 135 0 min 0,0 UV-I 13,4 C 16,9 C 0,0 km/h (0 Bft)
19.05.2011 21:55 19,1 C 18,8 C 17,5 C 18,4 C 16,9 C 0,0 C 69 % 78 % 0 % 1016,6 hPa 0,0 l/m 0,2 km/h (0 Bft) NW 315 0 min 0,0 UV-I 13,3 C 16,9 C 0,0 km/h (0 Bft)
19.05.2011 22:00 19,1 C 18,8 C 17,4 C 18,4 C 17,0 C 0,0 C 68 % 77 % 0 % 1016,6 hPa 0,0 l/m 0,2 km/h (0 Bft) S-SO 157 0 min 0,0 UV-I 13,1 C 17,0 C 0,0 km/h (0 Bft)
19.05.2011 22:10 19,0 C 18,8 C 17,5 C 18,4 C 17,3 C 0,0 C 69 % 77 % 0 % 1016,6 hPa 0,0 l/m 0,6 km/h (0 Bft) N 0 0 min 0,0 UV-I 13,2 C 17,3 C 1,8 km/h (1 Bft)
19.05.2011 22:15 18,9 C 18,8 C 17,5 C 18,3 C 17,2 C 0,0 C 69 % 77 % 0 % 1016,2 hPa 0,0 l/m 1,0 km/h (0 Bft) NO 45 0 min 0,0 UV-I 13,1 C 17,2 C 2,3 km/h (1 Bft)
19.05.2011 22:20 18,7 C 18,9 C 17,4 C 18,1 C 16,9 C 0,0 C 70 % 77 % 0 % 1016,2 hPa 0,0 l/m 0,8 km/h (0 Bft) O-NO 67 0 min 0,0 UV-I 13,1 C 16,9 C 0,0 km/h (0 Bft)
19.05.2011 22:25 18,6 C 18,9 C 17,2 C 17,9 C 16,4 C 0,0 C 71 % 78 % 0 % 1016,2 hPa 0,0 l/m 0,3 km/h (0 Bft) O-NO 67 0 min 0,0 UV-I 13,2 C 16,4 C 0,0 km/h (0 Bft)
19.05.2011 22:30 18,7 C 18,9 C 17,1 C 17,9 C 16,3 C 0,0 C 71 % 79 % 0 % 1016,2 hPa 0,0 l/m 0,0 km/h (0 Bft) W 270 0 min 0,0 UV-I 13,3 C 16,3 C 1,8 km/h (1 Bft)
19.05.2011 22:35 18,7 C 18,9 C 17,0 C 17,8 C 16,0 C 0,0 C 72 % 80 % 0 % 1016,8 hPa 0,0 l/m 0,2 km/h (0 Bft) SW 225 0 min 0,0 UV-I 13,5 C 16,0 C 0,0 km/h (0 Bft)
19.05.2011 22:40 18,5 C 18,9 C 16,9 C 17,6 C 15,9 C 0,0 C 72 % 80 % 0 % 1016,8 hPa 0,0 l/m 0,2 km/h (0 Bft) W-SW 247 0 min 0,0 UV-I 13,4 C 15,9 C 0,0 km/h (0 Bft)
19.05.2011 22:45 18,5 C 18,9 C 16,7 C 17,6 C 15,7 C 0,0 C 73 % 81 % 0 % 1016,8 hPa 0,0 l/m 0,3 km/h (0 Bft) S 180 0 min 0,0 UV-I 13,6 C 15,7 C 0,0 km/h (0 Bft)
19.05.2011 22:50 18,3 C 18,9 C 16,7 C 17,4 C 15,5 C 0,0 C 73 % 81 % 0 % 1016,8 hPa 0,0 l/m 0,3 km/h (0 Bft) NW 315 0 min 0,0 UV-I 13,4 C 15,5 C 0,0 km/h (0 Bft)
19.05.2011 22:55 18,3 C 18,8 C 16,4 C 17,3 C 15,4 C 0,0 C 74 % 82 % 0 % 1016,9 hPa 0,0 l/m 1,1 km/h (1 Bft) S 180 0 min 0,0 UV-I 13,6 C 15,4 C 0,0 km/h (0 Bft)
19.05.2011 23:00 18,3 C 18,8 C 16,3 C 17,3 C 15,4 C 0,0 C 74 % 83 % 0 % 1016,9 hPa 0,0 l/m 1,9 km/h (1 Bft) W-SW 247 0 min 0,0 UV-I 13,6 C 15,4 C 2,4 km/h (1 Bft)
19.05.2011 23:10 18,0 C 18,8 C 16,2 C 17,1 C 15,2 C 0,0 C 74 % 83 % 0 % 1016,9 hPa 0,0 l/m 1,3 km/h (1 Bft) N 0 0 min 0,0 UV-I 13,3 C 15,2 C 2,4 km/h (1 Bft)
19.05.2011 23:15 18,0 C 18,8 C 16,0 C 17,0 C 15,0 C 0,0 C 74 % 83 % 0 % 1016,8 hPa 0,0 l/m 1,3 km/h (1 Bft) SW 225 0 min 0,0 UV-I 13,3 C 15,0 C 3,9 km/h (1 Bft)
19.05.2011 23:20 17,8 C 18,8 C 16,1 C 16,9 C 15,0 C 0,0 C 75 % 83 % 0 % 1016,8 hPa 0,0 l/m 1,1 km/h (1 Bft) S 180 0 min 0,0 UV-I 13,3 C 15,0 C 1,8 km/h (1 Bft)
19.05.2011 23:25 17,7 C 18,8 C 15,9 C 16,7 C 14,8 C 0,0 C 75 % 84 % 0 % 1016,8 hPa 0,0 l/m 1,9 km/h (1 Bft) SW 225 0 min 0,0 UV-I 13,2 C 14,8 C 5,3 km/h (1 Bft)
19.05.2011 23:30 17,7 C 18,8 C 15,9 C 16,7 C 14,8 C 0,0 C 76 % 84 % 0 % 1016,8 hPa 0,0 l/m 1,8 km/h (1 Bft) S-SO 157 0 min 0,0 UV-I 13,4 C 14,8 C 2,3 km/h (1 Bft)
19.05.2011 23:35 17,5 C 18,8 C 15,6 C 16,5 C 14,6 C 0,0 C 76 % 84 % 0 % 1016,9 hPa 0,0 l/m 2,1 km/h (1 Bft) SO 135 0 min 0,0 UV-I 13,2 C 14,6 C 1,8 km/h (1 Bft)
19.05.2011 23:40 17,5 C 18,8 C 15,5 C 16,5 C 14,4 C 0,0 C 76 % 84 % 0 % 1016,9 hPa 0,0 l/m 1,9 km/h (1 Bft) SW 225 0 min 0,0 UV-I 13,2 C 14,4 C 1,8 km/h (1 Bft)
19.05.2011 23:45 17,3 C 18,9 C 15,5 C 16,3 C 14,2 C 0,0 C 76 % 84 % 0 % 1016,9 hPa 0,0 l/m 1,4 km/h (1 Bft) O-NO 67 0 min 0,0 UV-I 13,0 C 14,2 C 2,1 km/h (1 Bft)
19.05.2011 23:50 17,2 C 18,9 C 15,3 C 16,2 C 14,1 C 0,0 C 77 % 84 % 0 % 1016,9 hPa 0,0 l/m 0,8 km/h (0 Bft) O-NO 67 0 min 0,0 UV-I 13,1 C 14,1 C 0,0 km/h (0 Bft)
19.05.2011 23:55 16,8 C 18,9 C 15,1 C 15,8 C 13,8 C 0,0 C 78 % 85 % 0 % 1016,9 hPa 0,0 l/m 0,3 km/h (0 Bft) O-NO 67 0 min 0,0 UV-I 12,9 C 13,8 C 3,1 km/h (1 Bft)
_ Min-Zeit 05:55 09:15 05:55 05:30 05:30 00:00 14:25 15:20 00:00 05:15 - 00:00 - - - 00:00 05:55 05:30 00:00
Minimum _ 11,3 C 16,9 C 9,8 C 10,4 C 8,1 C 0,0 C 45 % 46 % 0 % 1014,7 hPa - 0,0 km/h (0 Bft) - - - 0,0 UV-I 8,3 C 8,1 C 0,0 km/h (0 Bft)
_ Max-Zeit 14:55 17:10 14:55 14:55 14:55 09:50 04:45 06:30 07:30 22:55 00:00 15:25 - - 08:10 14:10 18:20 14:55 15:15
Maximum _ 25,6 C 18,9 C 26,5 C 31,6 C 31,6 C 10,0 C 83 % 91 % 100 % 1016,9 hPa 0,0 l/m 6,9 km/h
S-SO (2 Bft)
- - 10 min 3,4 UV-I 14,6 C 31,6 C 14,8 km/h
S (3 Bft)
Durchschnitt _ 18,9 C 18,1 C 16,8 C 20,6 C 19,6 C 2,2 C 66 % 76 % 38 % 1015,4 hPa #0,0 l/m 1,2 km/h (1 Bft) SW - #7:50 h 1,1 UV-I 12,2 C 19,6 C 1,6 km/h (1 Bft)
2013 www.wetterstation-wechselburg.de